Location: Charleville
(26.4021°S, 146.2454°E)
Time: 09:22:50
(UTC+10:00)

N. Korean satellite - Visible Passes

Search period start: 30 November 2021 00:00
Search period end: 10 December 2021 00:00
Orbit: 447 x 495 km, 97.3° (Epoch: 29 November)

Date Brightness Start Highest point End Pass type
(mag) Time Alt. Az. Time Alt. Az. Time Alt. Az.
30 Nov 8.1 04:32:52 10° NNE 04:36:05 40° ESE 04:39:24 10° S visible
01 Dec 9.7 04:05:43 10° ENE 04:07:49 15° ESE 04:09:56 10° SE visible
03 Dec 7.4 04:40:26 10° NNE 04:43:47 54° ESE 04:47:15 10° S visible
04 Dec 9.5 04:12:52 10° ENE 04:15:26 20° ESE 04:18:05 10° SSE visible
07 Dec 9.0 04:20:04 10° NE 04:23:00 26° ESE 04:26:00 10° SSE visible
08 Dec 10.3 03:54:12 10° E 03:54:42 10° ESE 03:55:12 10° ESE visible
